TimeEST,TemperatureF,Dew PointF,Humidity,Sea Level PressureIn,VisibilityMPH,Wind Direction,Wind SpeedMPH,Gust SpeedMPH,PrecipitationIn,Events,Conditions,WindDirDegrees,DateUTC
12:51 AM,36.0,17.1,46,30.03,10.0,West,10.4,19.6,N/A,,Clear,260,2013-01-05 05:51:00
1:51 AM,35.1,17.1,48,30.05,10.0,WNW,13.8,23.0,N/A,,Clear,290,2013-01-05 06:51:00
2:51 AM,35.1,16.0,46,30.08,10.0,West,13.8,23.0,N/A,,Clear,270,2013-01-05 07:51:00
3:51 AM,34.0,17.1,50,30.09,10.0,West,10.4,-,N/A,,Partly Cloudy,270,2013-01-05 08:51:00
4:51 AM,33.8,17.6,52,30.11,10.0,West,15.0,21.9,N/A,,Mostly Cloudy,280,2013-01-05 09:51:00
5:51 AM,34.0,17.1,50,30.14,10.0,West,11.5,20.7,N/A,,Overcast,260,2013-01-05 10:51:00
6:51 AM,33.8,17.6,52,30.18,10.0,West,11.5,21.9,N/A,,Mostly Cloudy,260,2013-01-05 11:51:00
7:51 AM,34.0,18.0,52,30.20,10.0,West,11.5,-,N/A,,Scattered Clouds,260,2013-01-05 12:51:00
8:51 AM,35.6,19.4,52,30.24,10.0,West,13.8,-,N/A,,Partly Cloudy,280,2013-01-05 13:51:00
9:51 AM,37.4,19.4,48,30.25,10.0,West,8.1,-,N/A,,Scattered Clouds,280,2013-01-05 14:51:00
10:51 AM,39.9,21.0,47,30.26,10.0,NW,17.3,27.6,N/A,,Scattered Clouds,310,2013-01-05 15:51:00
11:51 AM,41.0,21.0,45,30.25,10.0,NNW,18.4,24.2,N/A,,Scattered Clouds,340,2013-01-05 16:51:00
12:51 PM,42.1,21.0,43,30.23,10.0,NNW,12.7,20.7,N/A,,Scattered Clouds,330,2013-01-05 17:51:00
1:51 PM,43.0,21.9,43,30.23,10.0,NW,10.4,-,N/A,,Scattered Clouds,320,2013-01-05 18:51:00
2:51 PM,43.0,19.9,40,30.24,10.0,NW,9.2,-,N/A,,Scattered Clouds,310,2013-01-05 19:51:00
3:51 PM,43.0,19.0,38,30.23,10.0,West,8.1,-,N/A,,Partly Cloudy,260,2013-01-05 20:51:00
4:51 PM,42.1,21.0,43,30.24,10.0,West,5.8,-,N/A,,Scattered Clouds,280,2013-01-05 21:51:00
5:51 PM,41.0,19.4,42,30.26,10.0,West,9.2,-,N/A,,Scattered Clouds,260,2013-01-05 22:51:00
6:51 PM,39.9,21.9,49,30.25,10.0,Calm,Calm,-,N/A,,Scattered Clouds,0,2013-01-05 23:51:00
7:51 PM,39.9,21.0,47,30.26,10.0,SSW,5.8,-,N/A,,Scattered Clouds,210,2013-01-06 00:51:00
8:51 PM,39.0,21.9,50,30.24,10.0,NW,3.5,-,N/A,,Scattered Clouds,320,2013-01-06 01:51:00
9:51 PM,39.0,21.0,49,30.24,10.0,West,8.1,-,N/A,,Mostly Cloudy,260,2013-01-06 02:51:00
10:51 PM,37.9,21.0,51,30.22,10.0,SW,3.5,-,N/A,,Mostly Cloudy,220,2013-01-06 03:51:00
11:51 PM,37.9,21.0,51,30.20,10.0,SW,5.8,-,N/A,,Mostly Cloudy,220,2013-01-06 04:51:00